Wind_Speed
14 14 15 15 15 13 12 14 13 14 14 14 14 14 14 14 14 15 14 14 13 13 12 11 11 11 11 11 11 11 11 12 12 11 11 10 10 9 9 8 9 8 8 7 6 6 7 7 6
13 13 14 14 14 11 12 12 13 14 14 14 14 14 14 14 14 14 14 13 12 12 12 11 11 10 10 10 10 11 11 11 11 11 11 10 9 9 9 8 8 7 7 7 7 6 7 7 6
12 13 13 13 12 11 11 12 13 13 14 14 14 14 13 13 14 13 13 13 12 12 11 10 10 9 9 9 9 10 10 10 10 10 10 9 9 8 8 7 7 7 7 6 6 6 7 6 6
11 12 12 12 11 11 11 12 12 13 13 13 14 13 12 13 13 12 12 12 11 11 10 10 10 9 9 8 9 9 9 9 9 10 9 9 8 8 7 7 7 6 6 6 6 6 6 6 5
10 11 11 10 10 11 11 11 12 13 12 12 12 13 12 12 11 11 11 11 10 10 10 9 9 9 9 8 8 8 8 8 8 8 8 8 8 7 7 7 6 6 6 5 5 5 5 5 5
10 10 10 9 9 10 10 10 11 12 11 11 11 11 11 11 11 10 9 9 9 8 8 8 7 7 8 8 7 7 7 7 7 7 7 7 7 7 7 7 7 6 6 6 6 5 5 5 5
9 9 9 8 8 9 9 10 10 11 11 10 10 10 11 11 10 9 9 8 7 7 7 6 6 6 7 7 6 6 6 5 5 6 7 6 6 7 7 6 6 5 5 5 5 5 5 5 4
8 8 7 7 8 8 9 9 10 11 10 10 9 9 9 10 9 8 8 7 7 6 6 5 5 5 6 7 6 6 5 4 4 5 6 6 5 5 6 5 5 5 5 5 5 5 5 5 4
6 7 5 6 8 8 8 9 9 10 9 9 9 8 8 8 8 7 7 6 6 6 5 5 4 5 5 5 5 5 4 3 4 4 5 5 4 4 5 5 4 5 5 5 5 5 5 4 3
5 5 5 5 6 7 8 8 8 9 9 9 8 7 7 7 6 6 5 5 5 5 5 4 3 4 4 4 4 3 3 3 3 3 4 3 4 4 4 5 5 4 4 4 4 4 4 3 3
4 4 4 4 5 6 7 7 8 8 9 9 7 6 6 6 6 5 5 4 4 4 3 3 3 3 3 3 3 3 3 3 3 3 3 3 3 4 4 4 5 4 4 4 4 4 3 3 2
3 3 3 3 4 4 5 6 7 7 8 7 7 6 6 6 5 5 4 3 3 3 3 3 3 2 2 2 2 3 3 3 3 3 2 2 2 3 3 4 4 3 3 3 3 3 3 2 2
4 3 3 3 3 3 4 5 6 6 7 6 6 6 6 6 5 5 4 3 3 3 3 2 2 2 2 2 3 3 3 3 3 3 2 2 2 2 3 4 4 3 2 3 3 3 2 1 1
5 4 4 3 2 2 3 4 5 5 5 5 5 5 6 6 5 4 3 3 3 2 2 3 2 2 2 2 3 3 3 3 3 3 2 2 2 2 3 3 3 3 2 2 3 3 3 2 1
5 5 4 4 3 2 3 3 4 4 5 5 5 4 5 5 5 4 3 3 2 2 2 2 2 2 3 2 3 3 4 4 3 3 3 2 2 2 2 3 2 2 2 2 3 3 3 2 2
6 5 5 5 4 3 3 2 2 3 4 4 4 4 4 4 4 4 3 3 2 2 1 1 2 2 2 3 3 3 4 4 3 3 3 3 3 2 3 3 3 3 3 4 4 4 4 4 4
8 7 7 6 5 4 2 2 1 1 2 3 3 3 4 3 4 3 3 2 2 2 2 2 2 2 2 3 3 4 4 5 5 4 4 4 3 3 3 4 4 4 4 5 5 5 5 5 5
10 9 8 7 6 5 4 4 3 1 1 2 2 3 3 3 3 3 3 3 3 3 4 3 4 3 3 3 4 4 5 5 5 4 4 4 4 4 4 4 5 6 6 6 7 6 6 6 6
13 11 10 10 8 7 6 5 4 3 2 2 2 2 3 4 4 3 3 3 3 4 5 6 5 4 4 3 4 5 5 5 5 5 5 5 5 4 5 5 6 6 7 7 7 6 6 6 5
15 13 12 12 10 9 7 7 6 4 4 4 4 4 4 4 4 4 4 4 4 5 6 6 5 5 5 4 5 6 6 6 6 5 5 6 6 6 6 6 6 6 7 7 7 6 6 5 5
17 15 15 14 12 11 10 9 7 6 6 6 5 5 5 5 5 5 6 5 5 6 6 6 6 6 6 5 6 6 6 6 6 5 5 6 7 8 8 7 7 7 7 7 6 6 5 5 5
18 17 17 16 13 12 11 9 9 7 7 7 7 6 6 6 6 7 7 6 6 6 6 7 7 6 6 6 6 7 7 6 6 6 7 8 9 10 9 8 7 8 7 7 7 6 6 6 6
20 19 18 16 15 14 12 10 10 9 8 7 7 7 6 6 6 7 6 6 6 6 6 7 7 7 7 7 7 8 7 7 8 8 8 9 9 10 9 8 8 8 7 7 7 7 7 7 6
20 19 18 17 16 16 14 11 10 10 8 8 8 7 6 5 6 6 5 6 6 7 7 7 7 8 8 8 8 8 8 8 9 10 10 10 10 10 9 9 9 8 8 8 8 8 8 7 7
21 19 18 17 18 17 15 14 13 11 9 8 8 7 7 6 6 5 5 6 7 7 8 8 8 8 9 9 9 9 9 9 9 11 11 11 10 9 9 9 9 9 8 9 9 9 8 8 8
22 21 19 17 16 15 17 15 14 13 11 10 9 8 8 7 7 7 7 7 8 8 8 9 10 9 9 9 9 9 9 9 10 10 11 11 10 10 10 10 10 10 9 9 9 9 9 10 10
23 23 21 19 18 16 16 16 15 14 13 12 11 10 10 9 9 9 9 9 9 9 9 10 10 9 9 9 9 9 10 10 11 11 11 10 10 10 11 11 11 11 10 10 10 11 11 11 11
24 23 22 21 19 16 16 15 15 15 13 13 13 12 11 11 10 10 9 10 10 10 11 11 10 10 10 10 10 10 11 11 11 11 11 12 11 11 11 12 12 12 11 12 11 11 11 11 12
25 24 23 21 20 17 15 16 16 15 14 14 13 12 12 11 11 10 10 11 11 11 12 11 12 12 12 12 12 12 11 12 12 12 12 12 12 12 12 13 13 12 12 12 11 11 11 11 12
25 24 23 21 21 19 16 16 17 16 16 15 15 14 13 13 12 12 12 12 13 13 13 13 13 13 13 13 13 13 12 12 12 12 12 13 13 13 13 13 13 13 12 11 11 11 11 11 12
Wind_Direction
77 74 71 73 75 77 82 83 83 83 82 85 87 88 91 96 98 101 102 101 100 99 96 96 96 97 98 96 95 94 91 89 89 92 93 95 97 96 96 97 92 93 99 96 95 97 98 98 98
79 74 72 74 77 77 79 81 83 84 83 85 88 88 91 94 98 102 104 104 103 101 98 96 97 98 99 99 97 95 91 88 89 91 92 92 92 94 97 98 94 92 92 94 96 94 101 102 102
79 74 73 74 75 76 78 81 84 85 82 85 87 89 90 92 96 102 104 105 103 100 99 97 94 96 97 100 99 98 93 90 88 88 89 91 90 91 93 95 93 90 90 94 94 97 101 102 105
79 75 73 76 73 74 79 82 84 84 82 84 86 89 93 92 93 99 103 104 102 99 99 96 95 93 94 96 96 96 95 92 90 90 93 91 89 91 92 92 88 85 84 87 89 93 98 101 98
81 77 75 74 70 72 78 82 80 81 80 82 85 88 93 93 94 97 101 102 100 99 99 97 92 89 92 95 94 94 94 90 88 89 90 87 87 91 91 91 90 87 83 81 79 85 94 97 90
85 81 82 74 68 69 74 77 77 79 83 84 85 90 93 92 94 98 101 101 99 99 100 96 92 90 90 95 95 94 91 85 82 85 86 84 81 80 81 87 86 82 80 76 74 78 84 89 94
91 90 86 77 70 71 74 75 72 75 81 82 84 90 93 93 93 95 98 96 97 98 100 93 94 91 87 90 93 89 85 80 82 85 85 82 77 80 80 83 83 79 75 72 74 77 84 89 91
91 89 84 75 75 74 73 73 70 71 79 85 84 85 92 93 92 92 95 96 97 100 98 100 96 93 88 87 86 84 79 78 82 87 84 81 82 79 78 80 82 74 76 73 76 74 72 76 79
92 93 97 83 77 75 72 70 68 69 75 84 85 85 87 90 88 93 95 100 104 101 98 94 94 93 85 81 81 80 76 78 79 84 79 76 77 81 76 71 75 72 72 74 68 62 64 65 71
102 108 108 98 81 75 71 67 64 67 73 77 83 82 85 87 85 88 93 99 103 104 103 92 89 90 89 88 80 76 67 70 75 82 79 73 69 70 64 57 57 56 58 59 52 53 56 59 69
116 127 121 107 92 79 73 69 66 67 70 71 72 72 75 80 83 88 91 95 100 97 99 91 87 81 84 86 73 53 49 53 64 71 61 59 62 61 60 52 48 44 45 47 45 42 43 50 66
140 142 135 121 110 89 76 72 68 65 67 71 70 73 73 72 76 84 87 94 89 88 89 87 82 69 72 71 58 49 48 41 50 52 42 48 39 46 41 32 33 32 26 21 18 23 35 39 49
170 162 161 154 132 105 82 72 69 71 68 71 72 66 59 59 61 71 73 85 90 86 77 79 70 66 67 62 52 49 42 32 31 30 31 32 27 31 26 17 19 21 14 4 5 9 5 22 15
182 182 183 182 168 132 90 73 71 72 67 64 67 66 54 50 52 59 69 81 84 84 77 65 58 53 51 56 45 28 13 11 1 358 8 8 4 356 2 4 7 10 3 358 358 1 353 340 317
196 198 197 195 186 152 116 79 70 69 65 62 62 62 53 53 51 47 57 65 67 64 66 64 51 50 44 42 33 12 358 351 342 340 341 350 347 342 345 352 352 353 349 341 339 341 338 336 320
201 203 210 205 200 176 135 95 71 68 61 60 57 52 48 49 45 42 39 31 29 28 32 34 15 19 22 21 9 355 349 342 330 331 334 326 328 341 342 328 331 331 332 338 326 320 319 315 310
204 208 214 215 209 204 192 205 203 69 49 40 40 36 35 36 38 32 21 10 8 6 358 344 340 349 348 349 344 334 336 335 320 315 320 317 317 323 331 317 319 323 322 327 322 311 309 307 304
209 210 215 218 212 208 209 224 235 264 345 7 14 9 8 12 10 3 2 351 345 336 328 327 336 325 316 327 338 331 331 332 325 312 315 322 322 318 322 316 317 317 317 317 315 306 301 301 302
210 212 218 221 218 213 216 226 236 259 281 296 322 333 338 344 350 345 337 335 325 321 321 320 318 314 313 313 323 325 325 326 331 331 321 321 324 314 310 313 313 316 318 314 310 305 301 299 299
215 217 221 224 222 222 226 231 237 248 270 282 297 317 329 331 332 332 324 323 325 322 319 319 317 311 308 314 323 324 324 321 322 326 331 323 320 314 305 303 306 312 314 313 310 304 298 299 301
219 219 224 226 225 229 231 234 241 250 265 277 287 303 311 312 314 319 318 308 320 323 320 318 312 314 313 317 326 327 324 321 324 327 318 320 314 314 311 304 302 306 309 312 311 304 290 293 298
221 221 224 225 225 234 226 234 244 252 261 269 278 287 294 296 300 303 311 306 307 316 317 314 309 310 314 319 323 327 319 319 320 318 317 315 314 316 312 310 299 300 301 306 309 307 296 292 294
221 222 224 225 226 231 231 228 247 251 259 263 270 278 283 288 296 304 305 304 305 309 311 311 310 309 309 311 318 317 315 314 317 316 317 317 318 320 315 313 304 301 299 298 300 298 293 294 295
222 222 224 225 228 232 231 230 245 251 252 257 265 267 274 283 290 298 299 299 306 306 306 307 306 307 308 308 313 312 312 313 314 316 316 316 317 316 312 305 303 300 301 298 294 292 290 289 294
220 221 226 229 231 234 235 236 242 242 243 251 260 264 269 282 283 287 299 302 306 310 307 305 304 303 305 305 308 308 308 310 312 314 315 315 315 314 314 309 303 300 302 300 297 295 290 287 291
219 220 221 226 235 235 238 238 241 239 240 247 256 264 269 274 280 285 291 299 301 304 305 303 303 300 300 300 305 309 307 307 309 310 314 313 312 313 312 311 305 302 301 300 297 293 290 289 290
220 219 220 223 227 230 241 241 240 239 245 250 255 259 264 271 276 280 285 292 294 297 301 302 299 296 297 301 304 303 303 303 303 304 310 314 311 311 310 308 308 304 300 299 294 290 288 288 290
221 221 221 221 226 232 241 245 242 240 241 245 249 257 261 266 271 277 285 290 289 292 296 297 294 294 295 298 297 297 297 299 303 304 305 308 308 308 307 304 304 302 298 296 294 288 287 287 288
221 221 222 225 227 229 238 246 242 236 238 242 247 255 260 264 266 272 279 286 287 290 289 289 289 290 291 292 292 294 297 298 300 301 302 305 305 307 305 304 303 299 298 296 295 290 291 289 290
222 223 224 227 230 227 230 244 244 238 238 242 246 252 257 261 264 267 275 284 285 285 285 285 285 287 285 285 286 288 293 295 298 299 300 301 303 307 308 305 303 298 294 293 292 290 293 291 292
Height
5908 5908 5908 5908 5909 5909 5907 5906 5905 5903 5903 5902 5901 5901 5900 5901 5902 5904 5901 5900 5901 5901 5901 5901 5901 5900 5900 5899 5899 5898 5898 5898 5897 5897 5897 5897 5896 5896 5896 5896 5896 5895 5895 5895 5895 5895 5895 5895 5895
5910 5910 5911 5911 5911 5910 5909 5908 5906 5905 5904 5903 5902 5902 5902 5902 5902 5902 5901 5902 5902 5902 5902 5902 5902 5902 5901 5901 5900 5900 5900 5899 5899 5899 5898 5898 5898 5897 5897 5897 5897 5897 5896 5896 5896 5896 5896 5896 5896
5911 5911 5913 5913 5912 5912 5911 5909 5908 5907 5906 5905 5904 5904 5904 5904 5903 5903 5903 5903 5904 5903 5903 5904 5903 5903 5903 5902 5902 5901 5901 5901 5900 5900 5900 5899 5899 5899 5898 5898 5898 5898 5898 5897 5897 5897 5897 5897 5897
5913 5914 5915 5915 5914 5914 5912 5911 5909 5908 5907 5907 5906 5906 5905 5905 5905 5905 5905 5905 5905 5905 5905 5905 5905 5904 5904 5903 5903 5903 5902 5902 5902 5901 5901 5900 5900 5900 5899 5899 5899 5899 5898 5898 5898 5898 5898 5898 5898
5915 5916 5917 5917 5916 5915 5914 5912 5911 5910 5909 5908 5908 5907 5907 5907 5907 5907 5907 5907 5907 5907 5907 5906 5906 5906 5905 5905 5904 5904 5904 5903 5903 5903 5902 5902 5901 5901 5900 5900 5900 5899 5899 5899 5899 5899 5899 5899 5898
5918 5918 5920 5918 5917 5916 5915 5914 5912 5911 5911 5910 5909 5909 5908 5908 5909 5909 5908 5908 5908 5908 5908 5908 5907 5907 5906 5906 5905 5905 5905 5905 5904 5904 5903 5903 5903 5902 5901 5901 5901 5900 5900 5900 5900 5899 5899 5899 5899
5919 5920 5920 5920 5919 5918 5917 5915 5914 5913 5912 5911 5911 5910 5910 5910 5910 5910 5910 5910 5909 5909 5909 5909 5908 5908 5907 5907 5906 5906 5906 5906 5905 5905 5904 5904 5904 5904 5903 5902 5902 5901 5901 5901 5901 5900 5900 5900 5900
5920 5922 5921 5921 5920 5919 5918 5917 5915 5914 5913 5913 5913 5912 5911 5911 5911 5911 5911 5911 5911 5910 5910 5910 5909 5909 5908 5908 5908 5907 5907 5907 5906 5906 5905 5905 5905 5904 5904 5903 5902 5902 5902 5902 5901 5901 5901 5901 5901
5921 5924 5922 5922 5921 5920 5919 5918 5917 5916 5915 5914 5914 5913 5913 5912 5912 5912 5912 5912 5912 5911 5911 5911 5911 5910 5910 5909 5908 5908 5908 5907 5907 5907 5906 5906 5905 5905 5905 5904 5904 5903 5903 5903 5902 5902 5902 5901 5901
5922 5923 5923 5922 5922 5921 5920 5919 5918 5917 5916 5916 5915 5914 5914 5913 5913 5913 5913 5913 5912 5912 5912 5912 5911 5911 5911 5910 5910 5909 5908 5908 5908 5908 5907 5906 5906 5906 5905 5905 5904 5904 5904 5903 5903 5902 5902 5902 5901
5922 5923 5922 5922 5922 5921 5921 5920 5919 5919 5918 5917 5916 5915 5915 5914 5914 5914 5914 5914 5914 5913 5913 5913 5912 5912 5912 5911 5911 5910 5910 5909 5909 5908 5908 5907 5907 5906 5906 5906 5905 5905 5904 5904 5903 5903 5903 5902 5901
5922 5922 5922 5922 5922 5922 5921 5921 5921 5920 5920 5919 5918 5917 5916 5916 5915 5915 5915 5915 5915 5914 5914 5914 5913 5913 5912 5912 5911 5911 5910 5910 5909 5909 5908 5908 5907 5907 5907 5906 5906 5905 5905 5904 5903 5903 5903 5902 5901
5922 5922 5923 5923 5923 5922 5922 5922 5922 5921 5920 5919 5919 5918 5917 5917 5917 5916 5916 5916 5916 5915 5915 5914 5914 5913 5913 5912 5912 5911 5911 5910 5910 5909 5909 5908 5908 5907 5907 5906 5906 5905 5905 5904 5904 5903 5902 5902 5901
5922 5922 5923 5923 5923 5923 5923 5923 5923 5922 5921 5921 5920 5919 5919 5918 5918 5918 5917 5917 5916 5916 5915 5915 5914 5914 5913 5913 5912 5912 5911 5910 5910 5909 5909 5908 5908 5907 5907 5906 5906 5905 5905 5904 5903 5903 5902 5901 5901
5921 5922 5923 5923 5923 5924 5924 5924 5923 5923 5922 5922 5921 5920 5920 5919 5919 5918 5918 5917 5917 5916 5916 5915 5915 5914 5914 5913 5912 5912 5911 5910 5909 5909 5909 5908 5908 5907 5906 5906 5905 5905 5904 5904 5903 5902 5902 5901 5901
5920 5922 5923 5924 5923 5924 5926 5925 5924 5923 5923 5922 5922 5921 5921 5920 5920 5919 5919 5918 5918 5917 5916 5916 5915 5915 5914 5913 5913 5912 5911 5910 5910 5909 5908 5908 5907 5906 5906 5906 5905 5904 5904 5903 5903 5902 5901 5901 5900
5920 5922 5923 5923 5923 5923 5925 5925 5924 5924 5923 5923 5923 5922 5922 5921 5920 5920 5919 5919 5918 5917 5917 5916 5916 5915 5914 5913 5913 5912 5911 5910 5909 5908 5908 5907 5906 5906 5905 5905 5905 5904 5903 5903 5902 5901 5900 5900 5899
5920 5921 5922 5922 5922 5923 5924 5925 5924 5924 5923 5923 5923 5923 5922 5921 5921 5920 5919 5919 5918 5918 5917 5916 5915 5914 5914 5913 5912 5911 5911 5909 5909 5908 5908 5907 5906 5905 5905 5905 5904 5903 5903 5902 5901 5900 5899 5899 5898
5917 5919 5920 5921 5921 5922 5923 5924 5924 5924 5923 5923 5923 5923 5922 5922 5921 5920 5920 5919 5918 5917 5917 5916 5915 5914 5913 5912 5912 5911 5910 5909 5908 5908 5907 5906 5905 5905 5904 5904 5903 5902 5901 5900 5899 5899 5898 5897 5897
5914 5917 5918 5919 5920 5921 5922 5923 5923 5923 5923 5923 5923 5923 5922 5922 5921 5920 5919 5919 5918 5917 5916 5915 5914 5913 5912 5912 5911 5910 5909 5908 5907 5907 5906 5906 5905 5904 5903 5903 5902 5901 5900 5899 5898 5897 5897 5896 5896
5911 5914 5916 5917 5919 5920 5921 5922 5923 5923 5923 5923 5922 5922 5921 5921 5920 5920 5919 5918 5917 5916 5915 5915 5914 5913 5912 5911 5910 5909 5908 5907 5907 5906 5906 5905 5904 5903 5902 5901 5900 5900 5899 5898 5897 5896 5896 5896 5895
5909 5911 5913 5915 5917 5918 5920 5922 5922 5922 5922 5921 5921 5920 5920 5920 5919 5918 5917 5917 5916 5915 5914 5914 5913 5912 5911 5910 5910 5909 5908 5907 5906 5905 5905 5904 5903 5902 5900 5899 5899 5898 5897 5896 5896 5895 5895 5894 5894
5905 5907 5910 5912 5915 5917 5918 5920 5922 5920 5920 5920 5920 5919 5919 5918 5918 5917 5916 5916 5915 5914 5913 5913 5912 5911 5910 5909 5909 5908 5907 5906 5905 5905 5904 5903 5902 5901 5899 5898 5897 5897 5896 5895 5894 5894 5893 5893 5892
5901 5904 5907 5909 5912 5915 5916 5918 5920 5918 5918 5918 5918 5917 5918 5917 5917 5916 5915 5915 5914 5913 5912 5912 5911 5910 5909 5908 5907 5906 5906 5905 5904 5904 5902 5901 5900 5899 5898 5897 5896 5895 5894 5894 5893 5892 5891 5891 5891
5898 5902 5905 5907 5910 5912 5913 5914 5917 5916 5916 5916 5916 5916 5916 5916 5916 5915 5915 5914 5913 5912 5911 5910 5910 5909 5908 5907 5906 5905 5904 5904 5903 5902 5901 5899 5898 5897 5896 5896 5895 5894 5893 5892 5891 5890 5890 5890 5889
5894 5898 5903 5906 5908 5910 5909 5911 5913 5913 5914 5914 5914 5914 5914 5914 5914 5914 5913 5913 5912 5911 5910 5909 5908 5907 5907 5905 5904 5904 5903 5902 5901 5900 5899 5897 5896 5896 5895 5894 5893 5892 5891 5890 5889 5889 5888 5888 5887
5889 5893 5897 5901 5903 5906 5907 5908 5909 5910 5911 5911 5912 5912 5912 5912 5912 5912 5912 5911 5910 5909 5908 5907 5906 5906 5905 5904 5903 5903 5901 5900 5900 5898 5897 5896 5894 5894 5893 5892 5891 5890 5889 5888 5888 5887 5886 5885 5885
5885 5889 5892 5896 5899 5903 5904 5905 5906 5906 5907 5908 5909 5909 5910 5910 5910 5910 5910 5909 5908 5908 5907 5906 5905 5904 5903 5902 5901 5901 5900 5899 5898 5897 5896 5894 5893 5892 5891 5890 5889 5888 5887 5886 5885 5884 5884 5883 5882
5881 5884 5888 5892 5895 5899 5902 5904 5901 5903 5904 5905 5906 5906 5907 5907 5908 5908 5907 5907 5906 5905 5905 5904 5903 5902 5901 5900 5899 5899 5898 5897 5896 5895 5893 5892 5891 5889 5888 5887 5886 5885 5884 5883 5882 5881 5881 5880 5879
5876 5880 5884 5888 5890 5893 5897 5901 5897 5899 5900 5901 5902 5903 5904 5904 5905 5905 5905 5904 5904 5903 5902 5901 5900 5899 5898 5898 5897 5896 5895 5894 5893 5892 5891 5890 5888 5887 5886 5885 5884 5882 5881 5880 5879 5879 5878 5877 5876